Regional Weather Roundup
Issued by NWS Raleigh/Durham, NC

Home | Current Version | Previous Version | Text Only | Print | Product List | Glossary On
Versions: 1 2 3 4 5 6 7 8 9 10 11 12 13 14 15 16 17 18 19 20 21 22 23 24 25 26 27
000
ASUS42 KRAH 241710
RWRRAH
NORTH CAROLINA WEATHER ROUNDUP
NATIONAL WEATHER SERVICE RALEIGH NC
100 PM EDT FRI OCT 24 2014

NOTE: "FAIR" INDICATES FEW OR NO CLOUDS BELOW 12,000 FEET WITH NO
SIGNIFICANT WEATHER AND/OR OBSTRUCTIONS TO VISIBILITY.

NCZ001-053-055-056-065-067-241800-
WESTERN NORTH CAROLINA

CITY           SKY/WX    TMP DP  RH WIND       PRES   REMARKS
ASHEVILLE      MOSUNNY   61  39  44 CALM      30.09F
JEFFERSON      PTSUNNY   59  31  34 E3        30.07F
MORGANTON      PTSUNNY   63  43  48 CALM      30.10F
HICKORY        PTSUNNY   63  42  46 CALM      30.05F
RUTHERFORDTON  MOSUNNY   62  40  44 SW5       30.08F
MOUNT AIRY     PTSUNNY   65  44  45 N7        30.06F
BOONE          PTSUNNY   60  27  27 W7        30.08F
$$

NCZ021-022-025-041-071-084-088-241800-
CENTRAL NORTH CAROLINA

CITY           SKY/WX    TMP DP  RH WIND       PRES   REMARKS
CHARLOTTE      PTSUNNY   66  40  38 SE5       30.05F
GREENSBORO     PTSUNNY   65  38  36 N7        30.03F
WINSTON-SALEM  PTSUNNY   66  40  38 W5        30.05F
RALEIGH-DURHAM MOSUNNY   67  43  41 CALM      30.03F
FORT BRAGG     MOSUNNY   67  45  45 VRB3      30.02F
FAYETTEVILLE   MOSUNNY   66  43  43 CALM      30.03F
BURLINGTON     SUNNY     67  41  38 CALM      30.02F
LAURINBURG     SUNNY     67  43  41 VRB3      30.04F
$$

NCZ011-015-027-028-043-044-047-080-103-241800-
NORTHEASTERN NORTH CAROLINA

CITY           SKY/WX    TMP DP  RH WIND       PRES   REMARKS
ROCKY MT-WILSO MOSUNNY   68  46  45 CALM      30.01F
GREENVILLE     MOSUNNY   68  43  40 N3        30.02F
WASHINGTON     PTSUNNY   64  47  53 N5        30.01F
ELIZABETH CITY MOSUNNY   66  46  48 NW13      29.97F
MANTEO         SUNNY     61  48  62 W10       29.97F
CAPE HATTERAS  SUNNY     62  48  60 NW9       29.98F
$$

NCZ078-087-090-091-093-098-101-241800-
SOUTHEASTERN NORTH CAROLINA

CITY           SKY/WX    TMP DP  RH WIND       PRES   REMARKS
LUMBERTON      MOSUNNY   66  43  43 CALM      30.03F
GOLDSBORO      MOSUNNY   67  51  57 W5        30.00F
KINSTON        MOSUNNY   68  46  45 W3        30.02F
KENANSVILLE    PTSUNNY   67  44  44 NW3       30.03F
NEW BERN       PTSUNNY   69  46  43 VRB6      30.01F
CHERRY POINT   CLOUDY    66  45  46 NW6       30.02F
BEAUFORT       CLOUDY    66  47  50 NW7       30.01F
JACKSONVILLE   PTSUNNY   66  46  48 VRB3      30.02F
WILMINGTON     PTSUNNY   67  47  48 CALM      30.03F
$$




USA.gov is the U.S. government's official web portal to all federal, state and local government web resources and services.